TimeEDT,TemperatureF,Dew PointF,Humidity,Sea Level PressureIn,VisibilityMPH,Wind Direction,Wind SpeedMPH,Gust SpeedMPH,PrecipitationIn,Events,Conditions,WindDirDegrees,DateUTC
12:53 AM,45.0,37.9,76,30.21,10.0,Calm,Calm,-,N/A,,Clear,0,2013-05-05 04:53:00
1:53 AM,43.0,37.9,82,30.21,10.0,Calm,Calm,-,N/A,,Clear,0,2013-05-05 05:53:00
2:53 AM,42.1,37.0,82,30.21,10.0,Calm,Calm,-,N/A,,Clear,0,2013-05-05 06:53:00
3:53 AM,41.0,37.0,86,30.21,10.0,Calm,Calm,-,N/A,,Clear,0,2013-05-05 07:53:00
4:53 AM,39.0,36.0,89,30.21,10.0,Calm,Calm,-,N/A,,Clear,0,2013-05-05 08:53:00
5:53 AM,36.0,34.0,93,30.22,10.0,Calm,Calm,-,N/A,,Clear,0,2013-05-05 09:53:00
6:53 AM,39.9,37.0,89,30.23,10.0,Calm,Calm,-,N/A,,Clear,0,2013-05-05 10:53:00
7:53 AM,46.9,41.0,80,30.24,10.0,Calm,Calm,-,N/A,,Clear,0,2013-05-05 11:53:00
8:53 AM,55.0,43.0,64,30.24,10.0,ENE,4.6,-,N/A,,Clear,70,2013-05-05 12:53:00
9:53 AM,62.1,42.1,48,30.23,10.0,NE,4.6,-,N/A,,Clear,50,2013-05-05 13:53:00
10:53 AM,66.0,41.0,40,30.22,10.0,Calm,Calm,-,N/A,,Clear,0,2013-05-05 14:53:00
11:53 AM,69.1,39.0,33,30.20,10.0,East,9.2,-,N/A,,Clear,100,2013-05-05 15:53:00
12:53 PM,72.0,37.0,28,30.18,10.0,SE,9.2,-,N/A,,Clear,140,2013-05-05 16:53:00
1:53 PM,72.0,33.1,24,30.16,10.0,SE,9.2,16.1,N/A,,Clear,140,2013-05-05 17:53:00
2:53 PM,73.9,34.0,23,30.14,10.0,East,8.1,19.6,N/A,,Clear,100,2013-05-05 18:53:00
3:53 PM,73.9,30.9,21,30.12,10.0,Variable,6.9,-,N/A,,Clear,0,2013-05-05 19:53:00
4:53 PM,75.0,27.0,17,30.11,10.0,South,9.2,21.9,N/A,,Clear,170,2013-05-05 20:53:00
5:53 PM,73.9,25.0,16,30.10,10.0,SSE,11.5,-,N/A,,Clear,150,2013-05-05 21:53:00
6:53 PM,72.0,25.0,17,30.10,10.0,SE,9.2,-,N/A,,Clear,140,2013-05-05 22:53:00
7:53 PM,70.0,21.9,16,30.11,10.0,South,9.2,-,N/A,,Clear,170,2013-05-05 23:53:00
8:53 PM,55.0,30.9,40,30.12,10.0,North,3.5,-,N/A,,Clear,350,2013-05-06 00:53:00
9:53 PM,51.1,32.0,48,30.14,10.0,Calm,Calm,-,N/A,,Clear,0,2013-05-06 01:53:00
10:53 PM,46.0,33.1,61,30.15,10.0,Calm,Calm,-,N/A,,Clear,0,2013-05-06 02:53:00
11:53 PM,44.1,33.1,65,30.16,10.0,Calm,Calm,-,N/A,,Clear,0,2013-05-06 03:53:00